Location: Fort Wayne
(41.1310°N, 85.1290°W)
Time: 13:33:53
(UTC-04:00)

Oscar 19 - Visible Passes

Search period start: 17 September 2014 00:00
Search period end: 27 September 2014 00:00
Orbit: 775 x 791 km, 98.5° (Epoch: 16 September)

Date Brightness Start Highest point End Pass type
(mag) Time Alt. Az. Time Alt. Az. Time Alt. Az.
17 Sep 13.2 03:02:41 10° NNE 03:03:42 16° NNE 03:03:42 16° NNE visible
17 Sep 12.8 04:43:06 10° NNW 04:44:16 14° NNW 04:44:16 14° NNW visible
18 Sep 13.6 02:31:39 10° NE 02:31:39 10° NE 02:31:39 10° NE visible
18 Sep 12.8 04:10:45 10° N 04:12:13 18° NNW 04:12:13 18° NNW visible
19 Sep 13.0 03:38:52 10° N 03:40:10 18° N 03:40:10 18° N visible
20 Sep 13.3 03:07:20 10° NNE 03:08:07 15° NNE 03:08:07 15° NNE visible
20 Sep 12.9 04:47:58 10° NNW 04:48:41 12° NNW 04:48:41 12° NNW visible
21 Sep 12.9 04:15:30 10° N 04:16:38 16° NNW 04:16:38 16° NNW visible
22 Sep 13.1 03:43:34 10° N 03:44:35 16° N 03:44:35 16° N visible
23 Sep 13.4 03:11:59 10° NNE 03:12:32 13° NNE 03:12:32 13° NNE visible
23 Sep 13.1 04:52:52 10° NNW 04:53:06 11° NNW 04:53:06 11° NNW visible
24 Sep 13.0 04:20:16 10° N 04:21:03 14° NNW 04:21:03 14° NNW visible
25 Sep 13.2 03:48:16 10° N 03:49:00 14° N 03:49:00 14° N visible
26 Sep 13.5 03:16:38 10° NNE 03:16:56 12° NNE 03:16:56 12° NNE visible
